Find Starlink 34491

NORAD ID: 64780 Int'l Des: 2025-147 Owner: SPXS Country: US Constellation: starlink operational
LEOCIRCULAR

Live Position

Loading 3D Globe...

About Starlink 34491

Description loading...

Upcoming Passes

Passes for default location (London). Set your location on the main map for personalized predictions.

Altitude History

Loading altitude history...

Two-Line Element Set

1 64780U 25147AB 26104.21345118 .00005081 00000-0 18356-3 0 9992
2 64780 53.1592 77.5225 0001326 93.9517 266.1636 15.30196832 44192
Epoch: Apr 14, 2026 • Age: 11 hours

Current Status

Altitude 480.0 km
Velocity 7.63 km/s
Sub-Earth Point 49.09°N, 45.74°E
Launch Date Jul 8, 2025
Age 0.7 years
Type internet

Technical Details

Classification Payload
Mass 575.00 kg
Dry Mass 530.00 kg
Total Mass 575.00 kg
Length 0.30 m
Diameter 4.10 m
Span 29.00 m
Shape Box + pan
Manufacturer SPXS
Bus Type Starlink V2MO
Phase Status In Orbit
Owner/State SPXS/US

Most Searched